Location: Joplin, MO
(37.0842°N, 94.5133°W)
Time: 17:29:34
(UTC+02:00)

A-11 Canister half - All Passes

Search period start: 31 March 2023 00:00
Search period end: 10 April 2023 00:00
Orbit: 1526 x 1682 km, 47.3° (Epoch: 31 March)

Date Brightness Start Highest point End Pass type
(mag) Time Alt. Az. Time Alt. Az. Time Alt. Az.
31 Mar - 00:46:18 10° W 00:56:05 51° NNW 01:05:40 10° ENE daylight
31 Mar - 02:53:16 10° WNW 03:02:56 50° NNE 03:12:16 10° E visible
31 Mar - 04:58:56 10° WNW 05:08:50 87° SSW 05:18:21 10° SE visible
31 Mar - 07:05:14 10° WNW 07:12:54 28° SW 07:20:25 10° S visible
31 Mar - 20:16:26 10° S 20:24:16 26° SE 20:32:04 10° ENE daylight
31 Mar - 22:18:15 10° SW 22:28:26 82° SE 22:38:30 10° ENE daylight
01 Apr - 00:24:27 10° W 00:34:17 52° NNW 00:43:54 10° ENE daylight
01 Apr - 02:31:28 10° WNW 02:41:08 50° N 02:50:29 10° E daylight
01 Apr - 04:37:11 10° WNW 04:47:07 90° NE 04:56:39 10° SE visible
01 Apr - 06:43:21 10° WNW 06:51:16 30° SW 06:59:00 10° S visible
01 Apr - 19:55:03 10° S 20:02:36 24° SE 20:10:09 10° ENE daylight
01 Apr - 21:56:33 10° SW 22:06:42 79° SE 22:16:45 10° ENE daylight
02 Apr - 00:02:36 10° W 00:12:29 53° NNW 00:22:09 10° ENE daylight
02 Apr - 02:09:40 10° WNW 02:19:20 49° N 02:28:41 10° E daylight
02 Apr - 04:15:26 10° WNW 04:25:24 87° NE 04:34:58 10° ESE visible
02 Apr - 06:21:30 10° WNW 06:29:38 32° SW 06:37:34 10° S visible
02 Apr - 19:33:40 10° S 19:40:57 23° SE 19:48:13 10° ENE daylight
02 Apr - 21:34:50 10° SW 21:44:58 76° SE 21:55:01 10° ENE daylight
02 Apr - 23:40:46 10° W 23:50:41 55° NNW 00:00:24 10° ENE daylight
03 Apr - 01:47:51 10° WNW 01:57:31 49° N 02:06:54 10° E daylight
03 Apr - 03:53:41 10° WNW 04:03:40 84° NNE 04:13:16 10° ESE visible
03 Apr - 05:59:39 10° WNW 06:07:59 34° SW 06:16:08 10° S visible
03 Apr - 19:12:21 10° S 19:19:17 21° SE 19:26:15 10° E daylight
03 Apr - 21:13:09 10° SW 21:23:14 73° SE 21:33:17 10° ENE daylight
03 Apr - 23:18:56 10° W 23:28:53 56° NNW 23:38:39 10° ENE daylight
04 Apr - 01:26:02 10° WNW 01:35:43 48° N 01:45:06 10° E daylight
04 Apr - 03:31:55 10° WNW 03:41:55 81° NNE 03:51:33 10° ESE visible
04 Apr - 05:37:48 10° WNW 05:46:21 36° SW 05:54:39 10° SSE visible
04 Apr - 18:51:03 10° SSE 18:57:39 20° SE 19:04:15 10° E daylight
04 Apr - 20:51:28 10° SW 21:01:30 70° SE 21:11:31 10° ENE daylight
04 Apr - 22:57:06 10° W 23:07:05 57° NNW 23:16:55 10° ENE daylight
05 Apr - 01:04:13 10° WNW 01:13:54 48° N 01:23:18 10° E daylight
05 Apr - 03:10:09 10° WNW 03:20:11 79° NNE 03:29:50 10° ESE visible
05 Apr - 05:15:58 10° WNW 05:24:42 38° SW 05:33:10 10° SSE visible
05 Apr - 18:29:47 10° SSE 18:36:00 18° ESE 18:42:12 10° E daylight
05 Apr - 20:29:47 10° SW 20:39:47 67° SE 20:49:46 10° ENE daylight
05 Apr - 22:35:17 10° W 22:45:17 58° NNW 22:55:10 10° ENE daylight
06 Apr - 00:42:24 10° WNW 00:52:05 47° N 01:01:31 10° ENE daylight
06 Apr - 02:48:24 10° WNW 02:58:26 76° NNE 03:08:07 10° ESE visible
06 Apr - 04:54:09 10° WNW 05:03:02 40° SW 05:11:40 10° SSE visible
06 Apr - 18:08:36 10° SSE 18:14:21 17° ESE 18:20:07 10° E daylight
06 Apr - 20:08:07 10° SW 20:18:05 64° SE 20:28:01 10° ENE daylight
06 Apr - 22:13:28 10° W 22:23:29 60° NNW 22:33:25 10° ENE daylight
07 Apr - 00:20:35 10° WNW 00:30:16 47° N 00:39:43 10° ENE daylight
07 Apr - 02:26:39 10° WNW 02:36:42 74° NNE 02:46:22 10° ESE daylight
07 Apr - 04:32:20 10° WNW 04:41:23 43° SW 04:50:09 10° SSE visible
07 Apr - 17:47:28 10° SSE 17:52:43 15° ESE 17:57:57 10° E daylight
07 Apr - 19:46:29 10° SW 19:56:21 61° SE 20:06:16 10° ENE daylight
07 Apr - 21:51:39 10° WSW 22:01:42 62° NNW 22:11:40 10° ENE daylight
07 Apr - 23:58:45 10° WNW 00:08:27 47° N 00:17:56 10° ENE daylight
08 Apr - 02:04:53 10° WNW 02:14:57 71° NNE 02:24:38 10° ESE daylight
08 Apr - 04:10:32 10° WNW 04:19:43 45° SW 04:28:37 10° SSE visible
08 Apr - 17:26:26 10° SSE 17:31:04 14° ESE 17:35:43 10° E daylight
08 Apr - 19:24:51 10° SSW 19:34:39 58° SE 19:44:30 10° ENE daylight
08 Apr - 21:29:50 10° WSW 21:39:54 63° NNW 21:49:55 10° ENE daylight
08 Apr - 23:36:56 10° WNW 23:46:38 47° N 23:56:08 10° ENE daylight
09 Apr - 01:43:06 10° WNW 01:53:11 69° NNE 02:02:53 10° ESE daylight
09 Apr - 03:48:43 10° WNW 03:58:03 48° SW 04:07:04 10° SSE visible
09 Apr - 17:05:33 10° SE 17:09:26 13° ESE 17:13:21 10° E daylight
09 Apr - 19:03:14 10° SSW 19:12:56 55° SE 19:22:44 10° ENE daylight
09 Apr - 21:08:01 10° WSW 21:18:07 65° NNW 21:28:10 10° ENE daylight
09 Apr - 23:15:06 10° WNW 23:24:48 47° N 23:34:20 10° ENE daylight
